sat.trackr.live / text

‹ back to catalog

ONEWEB-0624

NORAD 55165 · 2023-004AB

PAYLOAD ACTIVE UNKNOWN

§ Identity

Operator
Country
UK
Launch date
2023-01-10
Launch site
AFETR
Launch vehicle
Mass (kg)
RCS (m²)

Purposes: comms

External: N2YO · Heavens-Above · Gunter

§ Orbital elements

Epoch: 2026-09-20T03:37:45.803712Z

Period
109.68 min
Inclination
87.8980°
Eccentricity
0.0001893
Mean motion
13.12931374 rev/d
Perigee alt
1,210.4 km
Apogee alt
1,213.3 km
Semi-major
7,590.0 km
B*
-7.1297e-4
RAAN
331.7156°
Arg perigee
104.4387°
Mean anomaly
255.6952°
Rev number
18,053

§ Raw data

ONEWEB-06241 55165U 23004AB  26263.15122458 -.00000246  00000+0 -71297-3 0  99902 55165  87.8980 331.7156 0001893 104.4387 255.6952 13.12931374180533

JSON: /api/v1/satellites/55165 · /tle

For live sub-satellite position, see the globe view (requires WebGL).

§ Visibility from observer

Set your observer location to see the next 7 days of passes ≥ 10°. The values pass through the URL so the page stays shareable.

No JS? Fill the form by hand. The geolocation button needs JavaScript.